| time (UTC) | temp F | wind direction | speed knots | gust knots | rain 1hr in | rain 24hr in | rain mn in | humidity % | barometer mb |
| 20260906052018 | 73 | 310 | 7.0 | 12.2 | 0.00 | 0.00 | 0.00 | 45 | 1017.6 |
| 20260906051019 | 73 | 5 | 6.1 | 10.4 | 0.00 | 0.00 | 0.00 | 45 | 1017.5 |
| 20260906050019 | 72 | 327 | 5.2 | 10.4 | 0.00 | 0.00 | 0.00 | 45 | 1017.4 |
| 20260906045019 | 72 | 347 | 6.1 | 10.4 | 0.00 | 0.00 | 0.00 | 45 | 1017.4 |
| 20260906044019 | 72 | 318 | 6.1 | 10.4 | 0.00 | 0.00 | 0.00 | 46 | 1017.2 |
| 20260906043019 | 71 | 323 | 7.0 | 11.3 | 0.00 | 0.00 | 0.00 | 47 | 1017.1 |
| 20260906042019 | 71 | 346 | 5.2 | 9.6 | 0.00 | 0.00 | 0.00 | 47 | 1017.0 |
| 20260906041019 | 71 | 328 | 5.2 | 10.4 | 0.00 | 0.00 | 0.00 | 47 | 1017.0 |
| 20260906040019 | 71 | 317 | 5.2 | 9.6 | 0.00 | 0.00 | 0.00 | 47 | 1016.8 |
| 20260906035019 | 72 | 259 | 7.0 | 11.3 | 0.00 | 0.00 | 0.00 | 46 | 1016.9 |
| 20260906034019 | 72 | 245 | 7.0 | 11.3 | 0.00 | 0.00 | 0.00 | 45 | 1016.8 |
| 20260906033019 | 73 | 339 | 7.8 | 11.3 | 0.00 | 0.00 | 0.00 | 44 | 1016.8 |
| 20260906032019 | 73 | 334 | 7.8 | 11.3 | 0.00 | 0.00 | 0.00 | 44 | 1016.7 |
| 20260906031019 | 73 | 326 | 5.2 | 10.4 | 0.00 | 0.00 | 0.00 | 43 | 1016.6 |
| 20260906030019 | 73 | 254 | 6.1 | 10.4 | 0.00 | 0.00 | 0.00 | 44 | 1016.6 |
| 20260906025019 | 73 | 250 | 7.0 | 10.4 | 0.00 | 0.00 | 0.00 | 43 | 1016.5 |
| 20260906024019 | 73 | 274 | 6.1 | 10.4 | 0.00 | 0.00 | 0.00 | 45 | 1016.4 |
| 20260906023019 | 73 | 311 | 5.2 | 9.6 | 0.00 | 0.00 | 0.00 | 44 | 1016.3 |
| 20260906022019 | 73 | 300 | 5.2 | 9.6 | 0.00 | 0.00 | 0.00 | 44 | 1016.3 |
| 20260906021019 | 73 | 337 | 5.2 | 8.7 | 0.00 | 0.00 | 0.00 | 45 | 1016.3 |
| 20260906020018 | 73 | 338 | 5.2 | 8.7 | 0.00 | 0.00 | 0.00 | 44 | 1016.3 |
| 20260906015019 | 73 | 322 | 4.3 | 8.7 | 0.00 | 0.00 | 0.00 | 44 | 1016.3 |
| 20260906014019 | 73 | 287 | 2.6 | 7.8 | 0.00 | 0.00 | 0.00 | 44 | 1016.3 |
| 20260906013019 | 73 | 328 | 4.3 | 7.0 | 0.00 | 0.00 | 0.00 | 44 | 1016.3 |
| 20260906012019 | 73 | 355 | 4.3 | 7.8 | 0.00 | 0.00 | 0.00 | 44 | 1016.3 |
| 20260906011019 | 73 | 322 | 4.3 | 8.7 | 0.00 | 0.00 | 0.00 | 44 | 1016.3 |
| 20260906010019 | 73 | 346 | 5.2 | 9.6 | 0.00 | 0.00 | 0.00 | 44 | 1016.2 |
| 20260906005019 | 73 | 336 | 6.1 | 10.4 | 0.00 | 0.00 | 0.00 | 44 | 1016.2 |
| 20260906004019 | 73 | 340 | 7.0 | 11.3 | 0.00 | 0.00 | 0.00 | 44 | 1016.2 |
| 20260906003018 | 73 | 346 | 6.1 | 11.3 | 0.00 | 0.00 | 0.00 | 44 | 1016.2 |
| 20260906002019 | 73 | 316 | 4.3 | 7.8 | 0.00 | 0.00 | 0.00 | 44 | 1016.3 |
| 20260906001019 | 73 | 328 | 4.3 | 7.8 | 0.00 | 0.00 | 0.00 | 44 | 1016.4 |
| 20260906000018 | 73 | 309 | 3.5 | 8.7 | 0.00 | 0.00 | 0.00 | 44 | 1016.3 |
| 20260905235019 | 73 | 325 | 6.1 | 10.4 | 0.00 | 0.00 | 0.00 | 44 | 1016.4 |
| 20260905234018 | 73 | 344 | 6.1 | 10.4 | 0.00 | 0.00 | 0.00 | 44 | 1016.4 |
| 20260905233019 | 73 | 327 | 5.2 | 10.4 | 0.00 | 0.00 | 0.00 | 44 | 1016.3 |
| 20260905232018 | 73 | 334 | 5.2 | 10.4 | 0.00 | 0.00 | 0.00 | 44 | 1016.3 |
| 20260905231019 | 73 | 337 | 5.2 | 8.7 | 0.00 | 0.00 | 0.00 | 43 | 1016.3 |
| 20260905230019 | 73 | 330 | 6.1 | 9.6 | 0.00 | 0.00 | 0.00 | 44 | 1016.4 |
| 20260905225019 | 73 | 327 | 6.1 | 9.6 | 0.00 | 0.00 | 0.00 | 45 | 1016.4 |
| 20260905224018 | 73 | 332 | 6.1 | 10.4 | 0.00 | 0.00 | 0.00 | 44 | 1016.3 |
| 20260905223019 | 73 | 326 | 6.1 | 10.4 | 0.00 | 0.00 | 0.00 | 44 | 1016.4 |
| 20260905222019 | 73 | 335 | 7.0 | 12.2 | 0.00 | 0.00 | 0.00 | 44 | 1016.4 |
| 20260905221018 | 74 | 323 | 7.8 | 11.3 | 0.00 | 0.00 | 0.00 | 43 | 1016.4 |
| 20260905220018 | 74 | 327 | 6.1 | 9.6 | 0.00 | 0.00 | 0.00 | 43 | 1016.4 |
| 20260905215019 | 73 | 346 | 7.8 | 11.3 | 0.00 | 0.00 | 0.00 | 44 | 1016.5 |
| 20260905214019 | 74 | 349 | 7.8 | 11.3 | 0.00 | 0.00 | 0.00 | 44 | 1016.6 |
| 20260905213018 | 73 | 335 | 6.1 | 10.4 | 0.00 | 0.00 | 0.00 | 44 | 1016.6 |
| 20260905212018 | 73 | 336 | 6.1 | 10.4 | 0.00 | 0.00 | 0.00 | 45 | 1016.5 |
| 20260905211018 | 73 | 315 | 5.2 | 8.7 | 0.00 | 0.00 | 0.00 | 44 | 1016.5 |
| 20260905210018 | 73 | 335 | 6.1 | 8.7 | 0.00 | 0.00 | 0.00 | 43 | 1016.6 |
| 20260905205019 | 74 | 341 | 6.1 | 9.6 | 0.00 | 0.00 | 0.00 | 43 | 1016.6 |
| 20260905204018 | 74 | 331 | 5.2 | 7.8 | 0.00 | 0.00 | 0.00 | 43 | 1016.5 |
| 20260905203019 | 74 | 337 | 5.2 | 9.6 | 0.00 | 0.00 | 0.00 | 42 | 1016.6 |
| 20260905202019 | 74 | 321 | 5.2 | 8.7 | 0.00 | 0.00 | 0.00 | 42 | 1016.6 |
| 20260905201019 | 74 | 347 | 6.1 | 8.7 | 0.00 | 0.00 | 0.00 | 42 | 1016.6 |
| 20260905200019 | 74 | 338 | 5.2 | 8.7 | 0.00 | 0.00 | 0.00 | 41 | 1016.6 |
| 20260905195019 | 75 | 339 | 5.2 | 10.4 | 0.00 | 0.00 | 0.00 | 40 | 1016.6 |
| 20260905194019 | 75 | 329 | 5.2 | 8.7 | 0.00 | 0.00 | 0.00 | 40 | 1016.7 |
| 20260905193019 | 75 | 340 | 5.2 | 8.7 | 0.00 | 0.00 | 0.00 | 39 | 1016.6 |
| 20260905192018 | 75 | 337 | 5.2 | 7.8 | 0.00 | 0.00 | 0.00 | 39 | 1016.6 |
| 20260905191018 | 76 | 350 | 5.2 | 7.8 | 0.00 | 0.00 | 0.00 | 37 | 1016.6 |
| 20260905190018 | 76 | 339 | 5.2 | 9.6 | 0.00 | 0.00 | 0.00 | 37 | 1016.5 |
| 20260905185018 | 76 | 354 | 5.2 | 9.6 | 0.00 | 0.00 | 0.00 | 36 | 1016.5 |
| 20260905184019 | 77 | 309 | 4.3 | 6.1 | 0.00 | 0.00 | 0.00 | 35 | 1016.4 |
| 20260905183019 | 78 | 329 | 4.3 | 7.0 | 0.00 | 0.00 | 0.00 | 34 | 1016.4 |
| 20260905182019 | 79 | 330 | 4.3 | 7.0 | 0.00 | 0.00 | 0.00 | 33 | 1016.4 |
| 20260905181019 | 79 | 340 | 4.3 | 7.8 | 0.00 | 0.00 | 0.00 | 32 | 1016.2 |
| 20260905180019 | 80 | 313 | 3.5 | 6.1 | 0.00 | 0.00 | 0.00 | 31 | 1016.1 |
| 20260905175019 | 81 | 312 | 2.6 | 4.3 | 0.00 | 0.00 | 0.00 | 30 | 1016.0 |
| 20260905174019 | 83 | 322 | 2.6 | 6.1 | 0.00 | 0.00 | 0.00 | 28 | 1016.0 |
| 20260905173019 | 85 | 338 | 1.7 | 3.5 | 0.00 | 0.00 | 0.00 | 27 | 1015.8 |
| 20260905172019 | 85 | 297 | 0.9 | 2.6 | 0.00 | 0.00 | 0.00 | 26 | 1015.9 |
| 20260905171019 | 86 | 225 | 0.0 | 0.9 | 0.00 | 0.00 | 0.00 | 26 | 1015.8 |
| 20260905170019 | 86 | 205 | 0.9 | 1.7 | 0.00 | 0.00 | 0.00 | 25 | 1015.8 |
| 20260905165018 | 87 | 228 | 0.0 | 0.9 | 0.00 | 0.00 | 0.00 | 25 | 1015.7 |
| 20260905164019 | 89 | 203 | 0.0 | 0.9 | 0.00 | 0.00 | 0.00 | 24 | 1015.6 |
| 20260905163019 | 91 | 198 | 0.0 | 0.9 | 0.00 | 0.00 | 0.00 | 23 | 1015.5 |
| 20260905162018 | 95 | 267 | 0.9 | 0.9 | 0.00 | 0.00 | 0.00 | 22 | 1015.4 |
| 20260905161019 | 97 | 250 | 0.0 | 1.7 | 0.00 | 0.00 | 0.00 | 20 | 1015.4 |
| 20260905160019 | 98 | 222 | 0.9 | 2.6 | 0.00 | 0.00 | 0.00 | 20 | 1015.5 |
| 20260905155019 | 99 | 269 | 0.0 | 0.9 | 0.00 | 0.00 | 0.00 | 20 | 1015.4 |
| 20260905154019 | 100 | 252 | 0.0 | 1.7 | 0.00 | 0.00 | 0.00 | 19 | 1015.5 |
| 20260905153019 | 100 | 241 | 0.0 | 0.9 | 0.00 | 0.00 | 0.00 | 19 | 1015.5 |
| 20260905152019 | 101 | 250 | 0.9 | 1.7 | 0.00 | 0.00 | 0.00 | 19 | 1015.5 |
| 20260905151019 | 100 | 228 | 0.9 | 1.7 | 0.00 | 0.00 | 0.00 | 19 | 1015.5 |
| 20260905150019 | 99 | 255 | 0.9 | 1.7 | 0.00 | 0.00 | 0.00 | 20 | 1015.5 |
| 20260905145019 | 100 | 170 | 0.9 | 1.7 | 0.00 | 0.00 | 0.00 | 20 | 1015.5 |
| 20260905144019 | 100 | 240 | 0.9 | 2.6 | 0.00 | 0.00 | 0.00 | 20 | 1015.5 |
| 20260905143019 | 100 | 220 | 0.9 | 3.5 | 0.00 | 0.00 | 0.00 | 21 | 1015.6 |
| 20260905142019 | 100 | 221 | 0.9 | 1.7 | 0.00 | 0.00 | 0.00 | 21 | 1015.6 |
| 20260905141019 | 99 | 220 | 1.7 | 2.6 | 0.00 | 0.00 | 0.00 | 22 | 1015.7 |
| 20260905140019 | 99 | 207 | 0.9 | 2.6 | 0.00 | 0.00 | 0.00 | 22 | 1015.7 |
| 20260905135019 | 99 | 198 | 0.9 | 2.6 | 0.00 | 0.00 | 0.00 | 23 | 1015.8 |
| 20260905134019 | 99 | 232 | 0.9 | 3.5 | 0.00 | 0.00 | 0.00 | 23 | 1015.9 |
| 20260905133019 | 98 | 228 | 0.9 | 6.1 | 0.00 | 0.00 | 0.00 | 24 | 1016.0 |
| 20260905132019 | 98 | 236 | 0.9 | 1.7 | 0.00 | 0.00 | 0.00 | 24 | 1016.2 |
| 20260905131019 | 98 | 226 | 1.7 | 3.5 | 0.00 | 0.00 | 0.00 | 25 | 1016.2 |
| 20260905130019 | 98 | 238 | 0.9 | 1.7 | 0.00 | 0.00 | 0.00 | 25 | 1016.4 |
| 20260905125019 | 97 | 243 | 1.7 | 2.6 | 0.00 | 0.00 | 0.00 | 26 | 1016.4 |
| 20260905124019 | 97 | 227 | 1.7 | 3.5 | 0.00 | 0.00 | 0.00 | 26 | 1016.5 |
| 20260905123019 | 97 | 200 | 1.7 | 4.3 | 0.00 | 0.00 | 0.00 | 27 | 1016.6 |
| 20260905122019 | 96 | 203 | 1.7 | 3.5 | 0.00 | 0.00 | 0.00 | 28 | 1016.6 |
| 20260905121019 | 96 | 266 | 1.7 | 2.6 | 0.00 | 0.00 | 0.00 | 28 | 1016.8 |
| 20260905120019 | 96 | 253 | 0.9 | 2.6 | 0.00 | 0.00 | 0.00 | 29 | 1017.0 |
| 20260905115019 | 95 | 248 | 1.7 | 2.6 | 0.00 | 0.00 | 0.00 | 29 | 1017.1 |
| 20260905114019 | 95 | 209 | 1.7 | 4.3 | 0.00 | 0.00 | 0.00 | 30 | 1017.2 |
| 20260905113019 | 94 | 254 | 0.9 | 2.6 | 0.00 | 0.00 | 0.00 | 31 | 1017.3 |
| 20260905112019 | 93 | 309 | 1.7 | 2.6 | 0.00 | 0.00 | 0.00 | 31 | 1017.4 |
| 20260905111019 | 93 | 337 | 1.7 | 3.5 | 0.00 | 0.00 | 0.00 | 31 | 1017.4 |
| 20260905110019 | 93 | 268 | 1.7 | 3.5 | 0.00 | 0.00 | 0.00 | 31 | 1017.5 |
| 20260905105019 | 93 | 241 | 1.7 | 3.5 | 0.00 | 0.00 | 0.00 | 30 | 1017.6 |
| 20260905104019 | 93 | 217 | 1.7 | 3.5 | 0.00 | 0.00 | 0.00 | 30 | 1017.6 |
| 20260905103018 | 93 | 300 | 1.7 | 3.5 | 0.00 | 0.00 | 0.00 | 30 | 1017.7 |
| 20260905102019 | 92 | 226 | 1.7 | 4.3 | 0.00 | 0.00 | 0.00 | 30 | 1017.8 |
| 20260905101019 | 92 | 266 | 1.7 | 2.6 | 0.00 | 0.00 | 0.00 | 30 | 1018.0 |
| 20260905100019 | 91 | 241 | 1.7 | 3.5 | 0.00 | 0.00 | 0.00 | 29 | 1018.1 |
| 20260905095018 | 90 | 251 | 0.9 | 2.6 | 0.00 | 0.00 | 0.00 | 30 | 1018.3 |
| 20260905094019 | 89 | 206 | 1.7 | 4.3 | 0.00 | 0.00 | 0.00 | 31 | 1018.4 |
| 20260905093019 | 88 | 4 | 1.7 | 3.5 | 0.00 | 0.00 | 0.00 | 32 | 1018.5 |
| 20260905092018 | 87 | 225 | 1.7 | 3.5 | 0.00 | 0.00 | 0.00 | 33 | 1018.5 |
| 20260905091019 | 87 | 254 | 0.9 | 2.6 | 0.00 | 0.00 | 0.00 | 33 | 1018.6 |
| 20260905090019 | 86 | 257 | 0.9 | 2.6 | 0.00 | 0.00 | 0.00 | 34 | 1018.6 |
| 20260905085018 | 85 | 213 | 1.7 | 4.3 | 0.00 | 0.00 | 0.00 | 34 | 1018.7 |
| 20260905084018 | 85 | 240 | 0.9 | 3.5 | 0.00 | 0.00 | 0.00 | 35 | 1018.8 |
| 20260905083019 | 84 | 217 | 0.9 | 2.6 | 0.00 | 0.00 | 0.00 | 36 | 1018.8 |
| 20260905082018 | 83 | 197 | 0.9 | 2.6 | 0.00 | 0.00 | 0.00 | 37 | 1018.8 |
| 20260905081019 | 82 | 218 | 1.7 | 3.5 | 0.00 | 0.00 | 0.00 | 38 | 1018.8 |
| 20260905080019 | 82 | 252 | 0.9 | 2.6 | 0.00 | 0.00 | 0.00 | 38 | 1018.8 |
| 20260905075018 | 81 | 226 | 0.9 | 1.7 | 0.00 | 0.00 | 0.00 | 38 | 1018.9 |
| 20260905074019 | 81 | 222 | 0.9 | 2.6 | 0.00 | 0.00 | 0.00 | 39 | 1018.9 |
| 20260905073018 | 80 | 203 | 1.7 | 2.6 | 0.00 | 0.00 | 0.00 | 40 | 1018.9 |
| 20260905072019 | 79 | 210 | 0.9 | 2.6 | 0.00 | 0.00 | 0.00 | 41 | 1018.8 |
| 20260905071019 | 78 | 238 | 0.0 | 0.9 | 0.00 | 0.00 | 0.00 | 42 | 1018.8 |
| 20260905070019 | 77 | 219 | 0.9 | 1.7 | 0.00 | 0.00 | 0.00 | 43 | 1018.8 |
| 20260905065019 | 76 | 217 | 0.0 | 0.9 | 0.00 | 0.00 | 0.00 | 44 | 1018.7 |
| 20260905064019 | 75 | 354 | 1.7 | 3.5 | 0.00 | 0.00 | 0.00 | 44 | 1018.7 |
| 20260905063019 | 75 | 321 | 1.7 | 5.2 | 0.00 | 0.00 | 0.00 | 44 | 1018.8 |
| 20260905062018 | 74 | 346 | 3.5 | 5.2 | 0.00 | 0.00 | 0.00 | 45 | 1018.9 |
| 20260905061018 | 73 | 332 | 2.6 | 4.3 | 0.00 | 0.00 | 0.00 | 45 | 1018.9 |
| 20260905060019 | 72 | 312 | 3.5 | 6.1 | 0.00 | 0.00 | 0.00 | 46 | 1019.0 |
| 20260905055018 | 71 | 321 | 3.5 | 7.0 | 0.00 | 0.00 | 0.00 | 47 | 1018.9 |
| 20260905054018 | 70 | 322 | 3.5 | 6.1 | 0.00 | 0.00 | 0.00 | 47 | 1018.9 |
| 20260905053019 | 70 | 317 | 3.5 | 7.0 | 0.00 | 0.00 | 0.00 | 48 | 1018.8 |